EJU7583 LPPT-GVBA

Flight info

Callsign EJU7583
Flight time 4h 4m
Altitude 35000
Route ULVOT DCT BEXAL UN866 KONBA N866 GOMER/N0445F360 N866 TENPA DCT DIMKI DIMKI1P
Aircraft A320/M-SDE2E3FGHIJ1RWXYZ/LB1

Departure

Time 2026-04-18 07:03
Airport Lisbon Humberto Delgado Airport (LPPT)

Arrival

Time 2026-04-18 11:07
Airport Aristides Pereira International Airport (GVBA)
Time Latitude Longitude Altitude Speed Heading
2026-04-18 06:44 38.77373 -9.13136 337 ft 0 kts 78°
2026-04-18 06:44 38.77372 -9.13139 333 ft 0 kts 78°
2026-04-18 06:56 38.77369 -9.13161 334 ft 4 kts 78°
2026-04-18 06:56 38.77364 -9.13194 333 ft 4 kts 70°
2026-04-18 06:56 38.77350 -9.13221 337 ft 4 kts 61°
2026-04-18 06:56 38.77345 -9.13244 335 ft 4 kts 97°
2026-04-18 06:57 38.77356 -9.13262 338 ft 3 kts 169°
2026-04-18 06:57 38.77392 -9.13270 335 ft 0 kts 170°
2026-04-18 06:59 38.77343 -9.13283 335 ft 19 kts 220°
2026-04-18 07:00 38.77297 -9.13488 346 ft 25 kts 257°
2026-04-18 07:00 38.77264 -9.13694 351 ft 23 kts 258°
2026-04-18 07:00 38.77199 -9.13859 361 ft 21 kts 210°
2026-04-18 07:00 38.77064 -9.13936 354 ft 22 kts 202°
2026-04-18 07:01 38.76912 -9.14016 352 ft 25 kts 202°
2026-04-18 07:01 38.76743 -9.14106 344 ft 27 kts 202°
2026-04-18 07:01 38.76604 -9.14193 337 ft 17 kts 238°
2026-04-18 07:01 38.76634 -9.14346 332 ft 19 kts 310°
2026-04-18 07:02 38.76704 -9.14356 338 ft 1 kts 22°
2026-04-18 07:02 38.76810 -9.14300 340 ft 48 kts 22°
2026-04-18 07:02 38.77324 -9.14025 362 ft 109 kts 22°
2026-04-18 07:02 38.78186 -9.13564 370 ft 157 kts 22°
2026-04-18 07:03 38.79271 -9.12979 763 ft 166 kts 22°
2026-04-18 07:03 38.80285 -9.12420 1473 ft 153 kts 23°
2026-04-18 07:03 38.81239 -9.11882 2065 ft 148 kts 24°
2026-04-18 07:03 38.82168 -9.11343 2607 ft 142 kts 25°
2026-04-18 07:04 38.83059 -9.10765 2728 ft 147 kts 37°
2026-04-18 07:04 38.83799 -9.09745 2406 ft 176 kts 61°
2026-04-18 07:04 38.84246 -9.08182 2533 ft 198 kts 80°
2026-04-18 07:04 38.84121 -9.06347 2723 ft 222 kts 113°
2026-04-18 07:05 38.83070 -9.04801 2999 ft 246 kts 151°
2026-04-18 07:05 38.81348 -9.04382 3449 ft 264 kts 189°
2026-04-18 07:05 38.79615 -9.05227 4181 ft 270 kts 210°
2026-04-18 07:05 38.78054 -9.06592 4991 ft 273 kts 217°
2026-04-18 07:06 38.76651 -9.08035 5759 ft 275 kts 218°
2026-04-18 07:06 38.75172 -9.09592 6565 ft 276 kts 217°
2026-04-18 07:06 38.73665 -9.11134 7353 ft 278 kts 216°
2026-04-18 07:06 38.72121 -9.12650 8094 ft 281 kts 215°
2026-04-18 07:07 38.70543 -9.14148 8820 ft 284 kts 214°
2026-04-18 07:07 38.68940 -9.15636 9525 ft 286 kts 214°
2026-04-18 07:07 38.67315 -9.17126 10216 ft 289 kts 214°
2026-04-18 07:07 38.65613 -9.18675 10434 ft 312 kts 214°
2026-04-18 07:08 38.63784 -9.20336 10649 ft 331 kts 214°
2026-04-18 07:08 38.61887 -9.22056 11229 ft 337 kts 214°
2026-04-18 07:08 38.59971 -9.23794 11905 ft 339 kts 215°
2026-04-18 07:08 38.58043 -9.25546 12589 ft 341 kts 215°
2026-04-18 07:09 38.56103 -9.27306 13230 ft 343 kts 215°
2026-04-18 07:09 38.54151 -9.29075 13818 ft 346 kts 215°
2026-04-18 07:09 38.52182 -9.30856 14402 ft 348 kts 215°
2026-04-18 07:09 38.50194 -9.32655 14975 ft 351 kts 215°
2026-04-18 07:10 38.48195 -9.34463 15533 ft 354 kts 215°
2026-04-18 07:10 38.46177 -9.36285 16081 ft 357 kts 215°
2026-04-18 07:10 38.44142 -9.38126 16620 ft 360 kts 216°
2026-04-18 07:10 38.42097 -9.39978 17160 ft 362 kts 216°
2026-04-18 07:11 38.40039 -9.41840 17668 ft 364 kts 216°
2026-04-18 07:11 38.37993 -9.43691 18155 ft 367 kts 216°
2026-04-18 07:11 38.35905 -9.45578 18636 ft 369 kts 216°
2026-04-18 07:11 38.33801 -9.47473 19106 ft 372 kts 216°
2026-04-18 07:12 38.31676 -9.49385 19567 ft 375 kts 216°
2026-04-18 07:12 38.29539 -9.51308 20008 ft 378 kts 216°
2026-04-18 07:12 38.27385 -9.53244 20448 ft 380 kts 216°
2026-04-18 07:12 38.25217 -9.55186 20866 ft 383 kts 216°
2026-04-18 07:13 38.23029 -9.57146 21271 ft 386 kts 216°
2026-04-18 07:13 38.20833 -9.59113 21675 ft 388 kts 216°
2026-04-18 07:13 38.18616 -9.61097 22077 ft 391 kts 216°
2026-04-18 07:13 38.16386 -9.63094 22461 ft 393 kts 216°
2026-04-18 07:14 38.14144 -9.65098 22834 ft 396 kts 216°
2026-04-18 07:14 38.11885 -9.67117 23199 ft 398 kts 216°
2026-04-18 07:14 38.09614 -9.69147 23558 ft 401 kts 216°
2026-04-18 07:14 38.07323 -9.71195 23919 ft 403 kts 216°
2026-04-18 07:15 38.05026 -9.73245 24261 ft 405 kts 216°
2026-04-18 07:15 38.02715 -9.75305 24600 ft 407 kts 216°
2026-04-18 07:15 38.00389 -9.77377 24928 ft 409 kts 216°
2026-04-18 07:15 37.98056 -9.79453 25265 ft 411 kts 216°
2026-04-18 07:16 37.95712 -9.81536 25592 ft 412 kts 216°
2026-04-18 07:16 37.93356 -9.83623 25897 ft 414 kts 216°
2026-04-18 07:16 37.90986 -9.85723 26208 ft 416 kts 216°
2026-04-18 07:16 37.88644 -9.87798 26500 ft 418 kts 216°
2026-04-18 07:17 37.86257 -9.89912 26807 ft 419 kts 216°
2026-04-18 07:17 37.83868 -9.92029 27092 ft 421 kts 216°
2026-04-18 07:17 37.81468 -9.94155 27388 ft 422 kts 216°
2026-04-18 07:17 37.79051 -9.96294 27666 ft 424 kts 216°
2026-04-18 07:18 37.76629 -9.98433 27951 ft 426 kts 216°
2026-04-18 07:18 37.74202 -10.00574 28235 ft 427 kts 216°
2026-04-18 07:18 37.71762 -10.02725 28505 ft 428 kts 216°
2026-04-18 07:18 37.69310 -10.04883 28764 ft 430 kts 216°
2026-04-18 07:19 37.66855 -10.07043 29017 ft 431 kts 216°
2026-04-18 07:19 37.64390 -10.09215 29265 ft 433 kts 216°
2026-04-18 07:19 37.61918 -10.11393 29499 ft 434 kts 216°
2026-04-18 07:19 37.59439 -10.13574 29758 ft 435 kts 216°
2026-04-18 07:20 37.56954 -10.15754 29993 ft 436 kts 216°
2026-04-18 07:20 37.54456 -10.17941 30212 ft 437 kts 216°
2026-04-18 07:20 37.51958 -10.20126 30479 ft 437 kts 216°
2026-04-18 07:20 37.49458 -10.22310 30778 ft 436 kts 216°
2026-04-18 07:21 37.46971 -10.24481 31075 ft 435 kts 216°
2026-04-18 07:21 37.44485 -10.26652 31363 ft 434 kts 216°
2026-04-18 07:21 37.42004 -10.28820 31639 ft 433 kts 216°
2026-04-18 07:21 37.39533 -10.30980 31936 ft 432 kts 216°
2026-04-18 07:22 37.37067 -10.33137 32218 ft 431 kts 216°
2026-04-18 07:22 37.34604 -10.35284 32481 ft 431 kts 216°
2026-04-18 07:22 37.32144 -10.37423 32741 ft 430 kts 216°
2026-04-18 07:22 37.29680 -10.39562 33012 ft 429 kts 216°
2026-04-18 07:23 37.27231 -10.41688 33283 ft 428 kts 216°
2026-04-18 07:23 37.24780 -10.43813 33556 ft 427 kts 216°
2026-04-18 07:23 37.22338 -10.45926 33811 ft 426 kts 216°
2026-04-18 07:23 37.19899 -10.48042 34061 ft 426 kts 216°
2026-04-18 07:24 37.17466 -10.50154 34310 ft 425 kts 216°
2026-04-18 07:24 37.15038 -10.52255 34548 ft 424 kts 216°
2026-04-18 07:24 37.12610 -10.54351 34792 ft 423 kts 216°
2026-04-18 07:24 37.10193 -10.56435 35006 ft 422 kts 216°
2026-04-18 07:25 37.05377 -10.60590 35084 ft 419 kts 216°
2026-04-18 07:25 37.00592 -10.64719 35085 ft 418 kts 217°
2026-04-18 07:26 36.95803 -10.68843 35085 ft 417 kts 217°
2026-04-18 07:26 36.91055 -10.72926 35081 ft 417 kts 216°
2026-04-18 07:27 36.86274 -10.77018 35084 ft 417 kts 216°
2026-04-18 07:27 36.81494 -10.81110 35085 ft 417 kts 216°
2026-04-18 07:28 36.76712 -10.85192 35086 ft 417 kts 216°
2026-04-18 07:28 36.71932 -10.89276 35094 ft 417 kts 216°
2026-04-18 07:29 36.67148 -10.93359 35095 ft 417 kts 216°
2026-04-18 07:29 36.62357 -10.97426 35096 ft 417 kts 216°
2026-04-18 07:30 36.57573 -11.01490 35096 ft 416 kts 216°
2026-04-18 07:30 36.52786 -11.05558 35097 ft 417 kts 216°
2026-04-18 07:31 36.47996 -11.09614 35096 ft 417 kts 216°
2026-04-18 07:31 36.43208 -11.13670 35096 ft 416 kts 216°
2026-04-18 07:32 36.38416 -11.17714 35096 ft 416 kts 216°
2026-04-18 07:32 36.33623 -11.21751 35096 ft 416 kts 216°
2026-04-18 07:33 36.28835 -11.25782 35097 ft 416 kts 216°
2026-04-18 07:33 36.24078 -11.29783 35095 ft 416 kts 216°
2026-04-18 07:34 36.19292 -11.33805 35095 ft 416 kts 216°
2026-04-18 07:34 36.14504 -11.37814 35096 ft 415 kts 216°
2026-04-18 07:35 36.09721 -11.41820 35096 ft 415 kts 216°
2026-04-18 07:35 36.04930 -11.45829 35096 ft 416 kts 216°
2026-04-18 07:36 36.00141 -11.49829 35096 ft 416 kts 216°
2026-04-18 07:36 35.95347 -11.53816 35097 ft 415 kts 216°
2026-04-18 07:37 35.90551 -11.57798 35097 ft 416 kts 216°
2026-04-18 07:37 35.85761 -11.61778 35096 ft 415 kts 216°
2026-04-18 07:38 35.81779 -11.65076 35095 ft 415 kts 216°
2026-04-18 07:38 35.76990 -11.69052 35094 ft 415 kts 216°
2026-04-18 07:39 35.72202 -11.73029 35094 ft 415 kts 216°
2026-04-18 07:39 35.67399 -11.76994 35096 ft 416 kts 215°
2026-04-18 07:40 35.62597 -11.80947 35096 ft 415 kts 216°
2026-04-18 07:40 35.57790 -11.84904 35088 ft 416 kts 216°
2026-04-18 07:41 35.52985 -11.88853 35079 ft 416 kts 215°
2026-04-18 07:41 35.48179 -11.92795 35075 ft 415 kts 216°
2026-04-18 07:42 35.43381 -11.96741 35074 ft 415 kts 216°
2026-04-18 07:42 35.38576 -12.00683 35078 ft 415 kts 216°
2026-04-18 07:43 35.33770 -12.04603 35076 ft 415 kts 215°
2026-04-18 07:43 35.28961 -12.08515 35085 ft 415 kts 215°
2026-04-18 07:44 35.24155 -12.12431 35075 ft 415 kts 215°
2026-04-18 07:44 35.19352 -12.16342 35090 ft 415 kts 215°
2026-04-18 07:45 35.14557 -12.20248 35080 ft 414 kts 215°
2026-04-18 07:45 35.09755 -12.24149 35087 ft 414 kts 215°
2026-04-18 07:46 35.04960 -12.28042 35089 ft 414 kts 215°
2026-04-18 07:46 35.00153 -12.31930 35086 ft 414 kts 215°
2026-04-18 07:47 34.95373 -12.35786 35095 ft 414 kts 215°
2026-04-18 07:47 34.90566 -12.39659 35094 ft 415 kts 215°
2026-04-18 07:48 34.85754 -12.43539 35093 ft 414 kts 215°
2026-04-18 07:48 34.80948 -12.47416 35086 ft 415 kts 215°
2026-04-18 07:49 34.76141 -12.51292 35096 ft 414 kts 215°
2026-04-18 07:49 34.71333 -12.55146 35095 ft 414 kts 215°
2026-04-18 07:50 34.66521 -12.58992 35090 ft 414 kts 215°
2026-04-18 07:50 34.61712 -12.62841 35083 ft 413 kts 215°
2026-04-18 07:51 34.56910 -12.66686 35094 ft 414 kts 215°
2026-04-18 07:51 34.52106 -12.70523 35087 ft 414 kts 215°
2026-04-18 07:52 34.47287 -12.74344 35079 ft 414 kts 215°
2026-04-18 07:52 34.42473 -12.78177 35095 ft 414 kts 215°
2026-04-18 07:53 34.37664 -12.82006 35090 ft 414 kts 215°
2026-04-18 07:53 34.32849 -12.85824 35081 ft 413 kts 215°
2026-04-18 07:54 34.28036 -12.89633 35081 ft 413 kts 215°
2026-04-18 07:54 34.23292 -12.93460 35091 ft 412 kts 216°
2026-04-18 07:55 34.18596 -12.97443 35086 ft 412 kts 217°
2026-04-18 07:55 34.13909 -13.01450 35083 ft 413 kts 217°
2026-04-18 07:56 34.09206 -13.05424 35086 ft 413 kts 216°
2026-04-18 07:56 34.04489 -13.09375 35084 ft 413 kts 216°
2026-04-18 07:57 33.99773 -13.13329 35082 ft 413 kts 216°
2026-04-18 07:57 33.95060 -13.17283 35085 ft 413 kts 216°
2026-04-18 07:58 33.87988 -13.23206 35097 ft 413 kts 216°
2026-04-18 07:59 33.83264 -13.27149 35093 ft 413 kts 216°
2026-04-18 07:59 33.78545 -13.31078 35081 ft 413 kts 216°
2026-04-18 08:00 33.73825 -13.35005 35092 ft 413 kts 216°
2026-04-18 08:00 33.69104 -13.38933 35095 ft 413 kts 216°
2026-04-18 08:01 33.64378 -13.42861 35093 ft 413 kts 216°
2026-04-18 08:01 33.59665 -13.46780 35081 ft 412 kts 216°
2026-04-18 08:02 33.54943 -13.50690 35076 ft 413 kts 216°
2026-04-18 08:02 33.50210 -13.54592 35079 ft 412 kts 216°
2026-04-18 08:03 33.45496 -13.58501 35081 ft 412 kts 216°
2026-04-18 08:03 33.40766 -13.62403 35098 ft 413 kts 216°
2026-04-18 08:04 33.36032 -13.66296 35098 ft 413 kts 216°
2026-04-18 08:04 33.31296 -13.70192 35098 ft 413 kts 216°
2026-04-18 08:05 33.26562 -13.74084 35098 ft 413 kts 216°
2026-04-18 08:05 33.21831 -13.77965 35095 ft 412 kts 216°
2026-04-18 08:06 33.17131 -13.81817 35096 ft 412 kts 216°
2026-04-18 08:06 33.12397 -13.85682 35085 ft 413 kts 216°
2026-04-18 08:07 33.07647 -13.89536 35086 ft 413 kts 216°
2026-04-18 08:07 33.02893 -13.93380 35087 ft 413 kts 216°
2026-04-18 08:08 32.98147 -13.97227 35094 ft 413 kts 216°
2026-04-18 08:08 32.93395 -14.01075 35087 ft 413 kts 216°
2026-04-18 08:09 32.88645 -14.04919 35076 ft 413 kts 216°
2026-04-18 08:09 32.83881 -14.08759 35086 ft 414 kts 216°
2026-04-18 08:10 32.79119 -14.12594 35096 ft 414 kts 216°
2026-04-18 08:10 32.74350 -14.16429 35086 ft 413 kts 216°
2026-04-18 08:11 32.69584 -14.20251 35091 ft 414 kts 216°
2026-04-18 08:11 32.64819 -14.24076 35078 ft 414 kts 216°
2026-04-18 08:12 32.60045 -14.27890 35087 ft 414 kts 215°
2026-04-18 08:12 32.55271 -14.31708 35084 ft 414 kts 216°
2026-04-18 08:13 32.50504 -14.35526 35083 ft 414 kts 216°
2026-04-18 08:13 32.45730 -14.39341 35075 ft 413 kts 215°
2026-04-18 08:14 32.40962 -14.43140 35081 ft 414 kts 215°
2026-04-18 08:14 32.36213 -14.46918 35076 ft 414 kts 216°
2026-04-18 08:15 32.31438 -14.50714 35082 ft 414 kts 215°
2026-04-18 08:15 32.26660 -14.54506 35082 ft 414 kts 215°
2026-04-18 08:16 32.21883 -14.58297 35081 ft 414 kts 215°
2026-04-18 08:16 32.17102 -14.62084 35077 ft 413 kts 215°
2026-04-18 08:17 32.12330 -14.65867 35078 ft 413 kts 215°
2026-04-18 08:17 32.07548 -14.69641 35079 ft 413 kts 215°
2026-04-18 08:18 32.02774 -14.73405 35077 ft 413 kts 215°
2026-04-18 08:18 31.97991 -14.77170 35077 ft 413 kts 215°
2026-04-18 08:19 31.93210 -14.80929 35078 ft 413 kts 215°
2026-04-18 08:19 31.88427 -14.84691 35073 ft 413 kts 215°
2026-04-18 08:20 31.83645 -14.88449 35079 ft 414 kts 215°
2026-04-18 08:20 31.78857 -14.92203 35083 ft 414 kts 215°
2026-04-18 08:21 31.74068 -14.95950 35084 ft 414 kts 215°
2026-04-18 08:21 31.69310 -14.99665 35083 ft 413 kts 215°
2026-04-18 08:22 31.64528 -15.03400 35087 ft 413 kts 215°
2026-04-18 08:22 31.59745 -15.07130 35078 ft 413 kts 215°
2026-04-18 08:23 31.54962 -15.10862 35079 ft 413 kts 215°
2026-04-18 08:23 31.50174 -15.14588 35071 ft 413 kts 215°
2026-04-18 08:24 31.45384 -15.18310 35074 ft 413 kts 215°
2026-04-18 08:24 31.40594 -15.22018 35080 ft 413 kts 215°
2026-04-18 08:25 31.35803 -15.25725 35074 ft 413 kts 215°
2026-04-18 08:25 31.31017 -15.29433 35074 ft 413 kts 215°
2026-04-18 08:26 31.26105 -15.32917 35062 ft 413 kts 211°
2026-04-18 08:26 31.21889 -15.35554 35066 ft 414 kts 209°
2026-04-18 08:27 31.16784 -15.38663 35063 ft 413 kts 210°
2026-04-18 08:27 31.11720 -15.41840 35061 ft 413 kts 210°
2026-04-18 08:28 31.06680 -15.45058 35059 ft 413 kts 211°
2026-04-18 08:28 31.01650 -15.48281 35056 ft 413 kts 210°
2026-04-18 08:29 30.96646 -15.51471 35058 ft 412 kts 210°
2026-04-18 08:29 30.91607 -15.54657 35054 ft 412 kts 210°
2026-04-18 08:30 30.86531 -15.57864 35053 ft 412 kts 210°
2026-04-18 08:30 30.81527 -15.61028 35053 ft 412 kts 210°
2026-04-18 08:31 30.76491 -15.64216 35056 ft 412 kts 210°
2026-04-18 08:31 30.71458 -15.67395 35055 ft 412 kts 210°
2026-04-18 08:32 30.66424 -15.70570 35054 ft 411 kts 210°
2026-04-18 08:32 30.61393 -15.73728 35052 ft 411 kts 210°
2026-04-18 08:33 30.56363 -15.76882 35047 ft 411 kts 210°
2026-04-18 08:33 30.51328 -15.80040 35044 ft 411 kts 210°
2026-04-18 08:34 30.46302 -15.83207 35048 ft 411 kts 210°
2026-04-18 08:34 30.41274 -15.86364 35045 ft 411 kts 210°
2026-04-18 08:35 30.36238 -15.89506 35046 ft 411 kts 210°
2026-04-18 08:35 30.31196 -15.92645 35046 ft 411 kts 210°
2026-04-18 08:36 30.26161 -15.95789 35049 ft 411 kts 210°
2026-04-18 08:36 30.21122 -15.98936 35051 ft 411 kts 210°
2026-04-18 08:37 30.16082 -16.02074 35051 ft 412 kts 210°
2026-04-18 08:37 30.11034 -16.05210 35051 ft 412 kts 210°
2026-04-18 08:38 30.05988 -16.08346 35057 ft 412 kts 210°
2026-04-18 08:38 30.00945 -16.11481 35053 ft 412 kts 210°
2026-04-18 08:39 29.95937 -16.14590 35051 ft 411 kts 210°
2026-04-18 08:39 29.90903 -16.17706 35043 ft 411 kts 210°
2026-04-18 08:40 29.85862 -16.20816 35042 ft 411 kts 210°
2026-04-18 08:40 29.80827 -16.23929 35040 ft 410 kts 210°
2026-04-18 08:41 29.75797 -16.27040 35036 ft 410 kts 210°
2026-04-18 08:41 29.70763 -16.30137 35034 ft 410 kts 210°
2026-04-18 08:42 29.65729 -16.33234 35030 ft 410 kts 210°
2026-04-18 08:42 29.60686 -16.36329 35032 ft 411 kts 210°
2026-04-18 08:43 29.55650 -16.39422 35029 ft 411 kts 210°
2026-04-18 08:43 29.50611 -16.42516 35028 ft 410 kts 210°
2026-04-18 08:44 29.45578 -16.45604 35030 ft 411 kts 210°
2026-04-18 08:44 29.40530 -16.48698 35032 ft 411 kts 210°
2026-04-18 08:45 29.35489 -16.51783 35030 ft 411 kts 210°
2026-04-18 08:45 29.30448 -16.54860 35029 ft 411 kts 210°
2026-04-18 08:46 29.25404 -16.57933 35030 ft 411 kts 210°
2026-04-18 08:46 29.20365 -16.61001 35027 ft 410 kts 210°
2026-04-18 08:47 29.15324 -16.64073 35027 ft 410 kts 210°
2026-04-18 08:47 29.10316 -16.67111 35028 ft 410 kts 210°
2026-04-18 08:48 29.05273 -16.70163 35027 ft 410 kts 210°
2026-04-18 08:48 29.00231 -16.73219 35028 ft 410 kts 210°
2026-04-18 08:49 28.95194 -16.76275 35027 ft 410 kts 210°
2026-04-18 08:49 28.90162 -16.79324 35022 ft 410 kts 210°
2026-04-18 08:50 28.85125 -16.82374 35018 ft 410 kts 210°
2026-04-18 08:50 28.80085 -16.85421 35022 ft 410 kts 210°
2026-04-18 08:51 28.75043 -16.88464 35016 ft 410 kts 210°
2026-04-18 08:51 28.69995 -16.91504 35018 ft 411 kts 210°
2026-04-18 08:52 28.64941 -16.94537 35014 ft 410 kts 210°
2026-04-18 08:52 28.59892 -16.97571 35014 ft 410 kts 210°
2026-04-18 08:53 28.54841 -17.00605 35009 ft 410 kts 210°
2026-04-18 08:53 28.49791 -17.03631 35004 ft 410 kts 210°
2026-04-18 08:54 28.44742 -17.06661 34971 ft 410 kts 210°
2026-04-18 08:54 28.39698 -17.09688 34967 ft 410 kts 210°
2026-04-18 08:55 28.34648 -17.12708 34964 ft 410 kts 210°
2026-04-18 08:55 28.29601 -17.15721 34959 ft 410 kts 210°
2026-04-18 08:56 28.24583 -17.18711 34954 ft 410 kts 210°
2026-04-18 08:56 28.19528 -17.21724 34953 ft 411 kts 210°
2026-04-18 08:57 28.11936 -17.26245 34950 ft 411 kts 210°
2026-04-18 08:57 28.06870 -17.29258 34956 ft 411 kts 210°
2026-04-18 08:58 28.01807 -17.32262 34955 ft 411 kts 210°
2026-04-18 08:58 27.96941 -17.35618 34955 ft 409 kts 216°
2026-04-18 08:59 27.92181 -17.39179 35267 ft 410 kts 216°
2026-04-18 08:59 27.89800 -17.40957 35477 ft 410 kts 216°
2026-04-18 08:59 27.87420 -17.42731 35713 ft 409 kts 216°
2026-04-18 09:00 27.85044 -17.44497 35903 ft 409 kts 216°
2026-04-18 09:00 27.82669 -17.46262 35962 ft 409 kts 216°
2026-04-18 09:00 27.77924 -17.49792 35962 ft 408 kts 216°
2026-04-18 09:01 27.73187 -17.53319 35960 ft 408 kts 216°
2026-04-18 09:01 27.68441 -17.56838 35962 ft 408 kts 216°
2026-04-18 09:02 27.63701 -17.60361 35970 ft 408 kts 216°
2026-04-18 09:02 27.58989 -17.63857 35971 ft 408 kts 216°
2026-04-18 09:03 27.54246 -17.67365 35973 ft 408 kts 216°
2026-04-18 09:03 27.49507 -17.70865 35973 ft 408 kts 216°
2026-04-18 09:04 27.44765 -17.74366 35975 ft 408 kts 216°
2026-04-18 09:04 27.40019 -17.77868 35976 ft 408 kts 216°
2026-04-18 09:05 27.35275 -17.81367 35970 ft 408 kts 215°
2026-04-18 09:05 27.30528 -17.84866 35968 ft 408 kts 215°
2026-04-18 09:06 27.25775 -17.88363 35971 ft 408 kts 215°
2026-04-18 09:06 27.21022 -17.91850 35973 ft 408 kts 215°
2026-04-18 09:07 27.16276 -17.95339 35976 ft 407 kts 215°
2026-04-18 09:07 27.11534 -17.98818 35981 ft 407 kts 215°
2026-04-18 09:08 27.06792 -18.02287 35976 ft 407 kts 215°
2026-04-18 09:08 27.02050 -18.05755 35972 ft 407 kts 215°
2026-04-18 09:09 26.97307 -18.09222 35973 ft 407 kts 215°
2026-04-18 09:09 26.92568 -18.12688 35974 ft 407 kts 216°
2026-04-18 09:10 26.87828 -18.16145 35976 ft 406 kts 216°
2026-04-18 09:10 26.83089 -18.19597 35976 ft 406 kts 216°
2026-04-18 09:11 26.78352 -18.23039 35976 ft 406 kts 215°
2026-04-18 09:11 26.73650 -18.26458 35978 ft 405 kts 216°
2026-04-18 09:12 26.68924 -18.29894 35982 ft 405 kts 216°
2026-04-18 09:12 26.64162 -18.33349 35979 ft 405 kts 216°
2026-04-18 09:13 26.59466 -18.36758 35984 ft 405 kts 216°
2026-04-18 09:13 26.54742 -18.40180 35983 ft 405 kts 216°
2026-04-18 09:14 26.50023 -18.43599 35974 ft 404 kts 216°
2026-04-18 09:14 26.45312 -18.47009 35965 ft 403 kts 216°
2026-04-18 09:15 26.40601 -18.50413 35955 ft 403 kts 216°
2026-04-18 09:15 26.36649 -18.53254 35949 ft 403 kts 216°
2026-04-18 09:16 26.31971 -18.56619 35945 ft 403 kts 216°
2026-04-18 09:16 26.27259 -18.60016 35940 ft 403 kts 216°
2026-04-18 09:17 26.22552 -18.63415 35938 ft 403 kts 216°
2026-04-18 09:17 26.17838 -18.66802 35937 ft 403 kts 216°
2026-04-18 09:18 26.13120 -18.70180 35937 ft 403 kts 216°
2026-04-18 09:18 26.08407 -18.73564 35938 ft 403 kts 216°
2026-04-18 09:19 26.03686 -18.76955 35937 ft 404 kts 216°
2026-04-18 09:19 25.98958 -18.80341 35938 ft 404 kts 216°
2026-04-18 09:20 25.94237 -18.83726 35943 ft 403 kts 216°
2026-04-18 09:20 25.89526 -18.87105 35947 ft 403 kts 216°
2026-04-18 09:21 25.84806 -18.90466 35948 ft 403 kts 216°
2026-04-18 09:21 25.80084 -18.93814 35947 ft 402 kts 216°
2026-04-18 09:22 25.75377 -18.97168 35945 ft 402 kts 216°
2026-04-18 09:22 25.70674 -19.00522 35942 ft 402 kts 216°
2026-04-18 09:23 25.66001 -19.03849 35938 ft 402 kts 216°
2026-04-18 09:23 25.61297 -19.07190 35937 ft 402 kts 216°
2026-04-18 09:24 25.56592 -19.10533 35935 ft 402 kts 216°
2026-04-18 09:24 25.51885 -19.13872 35933 ft 402 kts 216°
2026-04-18 09:25 25.47177 -19.17207 35928 ft 402 kts 216°
2026-04-18 09:25 25.42474 -19.20539 35927 ft 402 kts 216°
2026-04-18 09:26 25.37764 -19.23878 35929 ft 402 kts 216°
2026-04-18 09:26 25.33055 -19.27204 35932 ft 402 kts 216°
2026-04-18 09:27 25.28339 -19.30526 35933 ft 402 kts 216°
2026-04-18 09:27 25.23622 -19.33848 35939 ft 402 kts 216°
2026-04-18 09:28 25.18911 -19.37164 35936 ft 402 kts 216°
2026-04-18 09:28 25.14195 -19.40480 35938 ft 402 kts 216°
2026-04-18 09:29 25.09489 -19.43802 35942 ft 402 kts 216°
2026-04-18 09:29 25.04779 -19.47118 35945 ft 401 kts 217°
2026-04-18 09:30 25.00073 -19.50426 35945 ft 401 kts 216°
2026-04-18 09:30 24.95359 -19.53730 35945 ft 401 kts 216°
2026-04-18 09:31 24.90642 -19.57019 35948 ft 401 kts 217°
2026-04-18 09:31 24.85933 -19.60318 35948 ft 401 kts 217°
2026-04-18 09:32 24.81229 -19.63613 35951 ft 401 kts 217°
2026-04-18 09:32 24.76522 -19.66904 35950 ft 401 kts 217°
2026-04-18 09:33 24.71820 -19.70191 35948 ft 400 kts 217°
2026-04-18 09:33 24.67118 -19.73463 35945 ft 400 kts 217°
2026-04-18 09:34 24.62421 -19.76736 35942 ft 400 kts 217°
2026-04-18 09:34 24.57732 -19.80007 35943 ft 399 kts 217°
2026-04-18 09:35 24.53039 -19.83265 35940 ft 399 kts 217°
2026-04-18 09:35 24.48347 -19.86521 35941 ft 398 kts 217°
2026-04-18 09:36 24.43665 -19.89770 35940 ft 398 kts 217°
2026-04-18 09:36 24.39014 -19.92999 35940 ft 398 kts 217°
2026-04-18 09:37 24.34331 -19.96240 35941 ft 398 kts 217°
2026-04-18 09:37 24.29657 -19.99469 35943 ft 397 kts 218°
2026-04-18 09:38 24.24988 -20.02700 35939 ft 397 kts 218°
2026-04-18 09:38 24.20313 -20.05929 35934 ft 397 kts 218°
2026-04-18 09:39 24.15645 -20.09150 35935 ft 397 kts 218°
2026-04-18 09:39 24.10976 -20.12376 35934 ft 397 kts 218°
2026-04-18 09:40 24.06309 -20.15597 35936 ft 397 kts 218°
2026-04-18 09:40 24.01634 -20.18812 35938 ft 396 kts 217°
2026-04-18 09:41 23.96969 -20.22020 35936 ft 396 kts 218°
2026-04-18 09:41 23.92302 -20.25232 35934 ft 396 kts 218°
2026-04-18 09:42 23.87640 -20.28440 35935 ft 396 kts 218°
2026-04-18 09:42 23.82977 -20.31646 35930 ft 396 kts 218°
2026-04-18 09:43 23.78311 -20.34847 35928 ft 396 kts 218°
2026-04-18 09:43 23.73654 -20.38038 35928 ft 396 kts 218°
2026-04-18 09:44 23.68988 -20.41224 35921 ft 396 kts 218°
2026-04-18 09:44 23.64328 -20.44410 35913 ft 395 kts 218°
2026-04-18 09:45 23.59674 -20.47594 35910 ft 395 kts 218°
2026-04-18 09:45 23.55017 -20.50769 35908 ft 395 kts 218°
2026-04-18 09:46 23.50390 -20.53923 35903 ft 395 kts 218°
2026-04-18 09:46 23.45737 -20.57102 35905 ft 395 kts 218°
2026-04-18 09:47 23.41071 -20.60278 35909 ft 396 kts 218°
2026-04-18 09:47 23.36403 -20.63452 35913 ft 396 kts 218°
2026-04-18 09:48 23.31728 -20.66630 35915 ft 396 kts 218°
2026-04-18 09:48 23.27060 -20.69809 35919 ft 396 kts 218°
2026-04-18 09:49 23.22380 -20.72989 35922 ft 396 kts 218°
2026-04-18 09:49 23.17699 -20.76155 35925 ft 396 kts 218°
2026-04-18 09:50 23.13022 -20.79327 35921 ft 396 kts 218°
2026-04-18 09:50 23.08350 -20.82490 35923 ft 396 kts 218°
2026-04-18 09:51 23.03670 -20.85657 35923 ft 396 kts 218°
2026-04-18 09:51 22.98996 -20.88815 35922 ft 395 kts 219°
2026-04-18 09:52 22.94360 -20.91948 35917 ft 395 kts 219°
2026-04-18 09:52 22.89698 -20.95098 35916 ft 395 kts 219°
2026-04-18 09:53 22.85031 -20.98242 35915 ft 395 kts 219°
2026-04-18 09:53 22.80368 -21.01384 35916 ft 395 kts 219°
2026-04-18 09:54 22.75711 -21.04529 35915 ft 395 kts 219°
2026-04-18 09:54 22.71043 -21.07664 35913 ft 395 kts 219°
2026-04-18 09:55 22.66374 -21.10802 35912 ft 395 kts 219°
2026-04-18 09:55 22.61706 -21.13939 35914 ft 395 kts 219°
2026-04-18 09:56 22.57031 -21.17071 35915 ft 395 kts 219°
2026-04-18 09:56 22.52361 -21.20205 35915 ft 395 kts 219°
2026-04-18 09:57 22.47696 -21.23340 35920 ft 395 kts 219°
2026-04-18 09:57 22.43024 -21.26467 35919 ft 395 kts 219°
2026-04-18 09:58 22.38387 -21.29560 35921 ft 394 kts 219°
2026-04-18 09:58 22.33686 -21.32698 35921 ft 395 kts 219°
2026-04-18 09:59 22.29046 -21.35793 35920 ft 395 kts 219°
2026-04-18 10:00 22.22045 -21.40480 35926 ft 394 kts 219°
2026-04-18 10:00 22.17380 -21.43598 35925 ft 395 kts 220°
2026-04-18 10:01 22.12703 -21.46708 35925 ft 395 kts 219°
2026-04-18 10:01 22.08020 -21.49812 35929 ft 395 kts 220°
2026-04-18 10:02 22.03342 -21.52920 35932 ft 395 kts 220°
2026-04-18 10:02 21.98667 -21.56029 35935 ft 395 kts 220°
2026-04-18 10:03 21.93995 -21.59135 35934 ft 394 kts 220°
2026-04-18 10:03 21.89326 -21.62229 35933 ft 394 kts 220°
2026-04-18 10:04 21.84657 -21.65324 35934 ft 394 kts 220°
2026-04-18 10:04 21.80778 -21.67891 35931 ft 394 kts 220°
2026-04-18 10:05 21.76106 -21.70983 35933 ft 394 kts 220°
2026-04-18 10:05 21.71437 -21.74077 35936 ft 394 kts 220°
2026-04-18 10:06 21.66770 -21.77168 35937 ft 394 kts 220°
2026-04-18 10:06 21.62097 -21.80249 35936 ft 394 kts 220°
2026-04-18 10:07 21.57429 -21.83325 35936 ft 393 kts 220°
2026-04-18 10:07 21.52763 -21.86394 35935 ft 393 kts 220°
2026-04-18 10:08 21.48107 -21.89469 35934 ft 393 kts 220°
2026-04-18 10:08 21.43448 -21.92534 35936 ft 393 kts 220°
2026-04-18 10:09 21.38784 -21.95587 35940 ft 394 kts 218°
2026-04-18 10:09 21.36257 -21.96824 35940 ft 406 kts 208°
2026-04-18 10:09 21.33461 -21.97542 35939 ft 421 kts 198°
2026-04-18 10:10 21.27559 -21.98021 35927 ft 426 kts 195°
2026-04-18 10:10 21.21638 -21.98493 35923 ft 427 kts 195°
2026-04-18 10:11 21.15724 -21.98981 35926 ft 426 kts 196°
2026-04-18 10:11 21.09850 -21.99461 35927 ft 426 kts 196°
2026-04-18 10:12 21.03926 -21.99931 35923 ft 427 kts 196°
2026-04-18 10:12 20.97992 -22.00396 35923 ft 427 kts 197°
2026-04-18 10:13 20.92062 -22.00878 35924 ft 427 kts 197°
2026-04-18 10:13 20.86136 -22.01364 35922 ft 427 kts 197°
2026-04-18 10:14 20.80202 -22.01849 35921 ft 428 kts 197°
2026-04-18 10:14 20.74263 -22.02321 35921 ft 428 kts 197°
2026-04-18 10:15 20.68320 -22.02789 35925 ft 428 kts 198°
2026-04-18 10:15 20.62379 -22.03268 35931 ft 428 kts 198°
2026-04-18 10:16 20.56440 -22.03745 35932 ft 428 kts 198°
2026-04-18 10:16 20.50541 -22.04216 35931 ft 428 kts 198°
2026-04-18 10:17 20.44586 -22.04692 35929 ft 429 kts 198°
2026-04-18 10:17 20.38636 -22.05172 35928 ft 429 kts 198°
2026-04-18 10:18 20.32683 -22.05648 35931 ft 429 kts 198°
2026-04-18 10:18 20.26728 -22.06118 35933 ft 429 kts 198°
2026-04-18 10:19 20.20777 -22.06593 35932 ft 429 kts 198°
2026-04-18 10:19 20.14827 -22.07059 35934 ft 429 kts 198°
2026-04-18 10:20 20.08875 -22.07535 35936 ft 428 kts 199°
2026-04-18 10:20 20.02929 -22.08020 35936 ft 429 kts 198°
2026-04-18 10:21 19.96981 -22.08488 35937 ft 429 kts 198°
2026-04-18 10:21 19.91033 -22.08958 35940 ft 428 kts 198°
2026-04-18 10:22 19.85095 -22.09430 35935 ft 428 kts 198°
2026-04-18 10:22 19.79155 -22.09903 35934 ft 428 kts 198°
2026-04-18 10:23 19.73261 -22.10365 35933 ft 428 kts 198°
2026-04-18 10:23 19.67326 -22.10838 35930 ft 428 kts 198°
2026-04-18 10:24 19.61391 -22.11310 35928 ft 428 kts 198°
2026-04-18 10:24 19.55445 -22.11771 35930 ft 428 kts 198°
2026-04-18 10:25 19.49506 -22.12239 35926 ft 428 kts 198°
2026-04-18 10:25 19.43564 -22.12715 35925 ft 429 kts 198°
2026-04-18 10:26 19.37608 -22.13188 35922 ft 429 kts 198°
2026-04-18 10:26 19.31648 -22.13661 35923 ft 430 kts 198°
2026-04-18 10:27 19.25675 -22.14124 35924 ft 430 kts 198°
2026-04-18 10:27 19.19701 -22.14591 35926 ft 431 kts 198°
2026-04-18 10:28 19.13719 -22.15064 35930 ft 431 kts 198°
2026-04-18 10:28 19.07736 -22.15533 35934 ft 431 kts 198°
2026-04-18 10:29 19.01748 -22.16004 35939 ft 431 kts 198°
2026-04-18 10:29 18.95766 -22.16480 35941 ft 431 kts 198°
2026-04-18 10:30 18.89824 -22.16950 35935 ft 431 kts 198°
2026-04-18 10:30 18.83828 -22.17420 35931 ft 432 kts 198°
2026-04-18 10:31 18.77826 -22.17880 35934 ft 433 kts 197°
2026-04-18 10:31 18.71815 -22.18349 35932 ft 433 kts 198°
2026-04-18 10:32 18.65804 -22.18825 35932 ft 434 kts 197°
2026-04-18 10:32 18.59778 -22.19293 35937 ft 434 kts 197°
2026-04-18 10:33 18.53749 -22.19758 35941 ft 434 kts 197°
2026-04-18 10:33 18.47724 -22.20230 35944 ft 434 kts 197°
2026-04-18 10:34 18.41701 -22.20704 35944 ft 434 kts 197°
2026-04-18 10:34 18.35676 -22.21178 35945 ft 434 kts 197°
2026-04-18 10:35 18.29650 -22.21638 35947 ft 434 kts 197°
2026-04-18 10:35 18.23622 -22.22102 35939 ft 435 kts 197°
2026-04-18 10:36 18.17585 -22.22571 35937 ft 435 kts 197°
2026-04-18 10:36 18.11545 -22.23046 35936 ft 435 kts 197°
2026-04-18 10:37 18.05509 -22.23517 35938 ft 435 kts 197°
2026-04-18 10:37 17.99461 -22.23983 35938 ft 436 kts 197°
2026-04-18 10:38 17.93405 -22.24444 35404 ft 439 kts 197°
2026-04-18 10:38 17.90364 -22.24682 34834 ft 437 kts 197°
2026-04-18 10:38 17.87395 -22.25068 34314 ft 422 kts 202°
2026-04-18 10:38 17.84558 -22.25608 33798 ft 419 kts 202°
2026-04-18 10:39 17.81707 -22.26154 33282 ft 415 kts 202°
2026-04-18 10:39 17.78877 -22.26701 32768 ft 412 kts 202°
2026-04-18 10:39 17.76072 -22.27246 32255 ft 408 kts 202°
2026-04-18 10:39 17.73287 -22.27783 31753 ft 405 kts 202°
2026-04-18 10:40 17.70522 -22.28310 31253 ft 403 kts 202°
2026-04-18 10:40 17.67777 -22.28829 30758 ft 399 kts 202°
2026-04-18 10:40 17.65061 -22.29342 30279 ft 395 kts 202°
2026-04-18 10:40 17.62369 -22.29854 29805 ft 392 kts 202°
2026-04-18 10:41 17.59700 -22.30366 29349 ft 387 kts 202°
2026-04-18 10:41 17.57059 -22.30872 28885 ft 384 kts 201°
2026-04-18 10:41 17.54450 -22.31372 28446 ft 380 kts 201°
2026-04-18 10:41 17.51865 -22.31864 28007 ft 376 kts 200°
2026-04-18 10:42 17.49309 -22.32351 27566 ft 372 kts 200°
2026-04-18 10:42 17.46775 -22.32836 27125 ft 368 kts 200°
2026-04-18 10:42 17.44269 -22.33316 26681 ft 364 kts 199°
2026-04-18 10:42 17.41789 -22.33792 26237 ft 361 kts 199°
2026-04-18 10:43 17.39326 -22.34263 25796 ft 358 kts 199°
2026-04-18 10:43 17.36890 -22.34725 25331 ft 355 kts 198°
2026-04-18 10:43 17.34465 -22.35182 24877 ft 352 kts 197°
2026-04-18 10:43 17.32060 -22.35634 24397 ft 350 kts 197°
2026-04-18 10:44 17.29669 -22.36085 23925 ft 348 kts 197°
2026-04-18 10:44 17.27296 -22.36538 23457 ft 346 kts 196°
2026-04-18 10:44 17.24937 -22.36991 22983 ft 343 kts 196°
2026-04-18 10:44 17.22594 -22.37441 22520 ft 342 kts 196°
2026-04-18 10:45 17.20264 -22.37886 22066 ft 340 kts 196°
2026-04-18 10:45 17.17944 -22.38329 21615 ft 338 kts 195°
2026-04-18 10:45 17.15632 -22.38769 21160 ft 337 kts 195°
2026-04-18 10:45 17.13331 -22.39200 20718 ft 335 kts 195°
2026-04-18 10:46 17.11046 -22.39628 20277 ft 333 kts 195°
2026-04-18 10:46 17.08769 -22.40056 19841 ft 331 kts 195°
2026-04-18 10:46 17.06509 -22.40482 19407 ft 329 kts 195°
2026-04-18 10:46 17.04264 -22.40907 18978 ft 327 kts 195°
2026-04-18 10:47 17.02034 -22.41335 18553 ft 325 kts 195°
2026-04-18 10:47 16.99814 -22.41763 18131 ft 323 kts 195°
2026-04-18 10:47 16.97607 -22.42186 17719 ft 322 kts 194°
2026-04-18 10:47 16.95409 -22.42603 17298 ft 320 kts 194°
2026-04-18 10:48 16.93219 -22.43018 16888 ft 319 kts 194°
2026-04-18 10:48 16.91040 -22.43430 16486 ft 318 kts 193°
2026-04-18 10:48 16.88893 -22.43837 16096 ft 317 kts 193°
2026-04-18 10:48 16.86726 -22.44247 15695 ft 316 kts 193°
2026-04-18 10:49 16.84563 -22.44655 15301 ft 315 kts 193°
2026-04-18 10:49 16.82409 -22.45061 14911 ft 314 kts 192°
2026-04-18 10:49 16.80254 -22.45467 14519 ft 314 kts 192°
2026-04-18 10:49 16.78111 -22.45872 14125 ft 313 kts 192°
2026-04-18 10:50 16.76437 -22.46150 14291 ft 298 kts 191°
2026-04-18 10:51 16.74352 -22.46505 13547 ft 310 kts 192°
2026-04-18 10:51 16.72217 -22.46916 13048 ft 313 kts 192°
2026-04-18 10:51 16.70084 -22.47343 12651 ft 312 kts 192°
2026-04-18 10:51 16.67955 -22.47766 12249 ft 311 kts 191°
2026-04-18 10:52 16.65834 -22.48181 11867 ft 310 kts 191°
2026-04-18 10:52 16.63713 -22.48591 11462 ft 309 kts 191°
2026-04-18 10:52 16.61599 -22.48995 11065 ft 309 kts 190°
2026-04-18 10:52 16.59488 -22.49397 10648 ft 308 kts 190°
2026-04-18 10:53 16.57377 -22.49795 10264 ft 307 kts 190°
2026-04-18 10:53 16.55307 -22.50185 10059 ft 299 kts 189°
2026-04-18 10:53 16.53262 -22.50568 9651 ft 299 kts 189°
2026-04-18 10:53 16.51215 -22.50952 9241 ft 299 kts 189°
2026-04-18 10:54 16.49857 -22.51207 8964 ft 299 kts 189°
2026-04-18 10:54 16.47813 -22.51593 8552 ft 298 kts 189°
2026-04-18 10:54 16.45780 -22.51976 8153 ft 297 kts 189°
2026-04-18 10:54 16.43750 -22.52357 7748 ft 296 kts 189°
2026-04-18 10:55 16.41732 -22.52737 7355 ft 294 kts 189°
2026-04-18 10:55 16.39725 -22.53116 6955 ft 293 kts 189°
2026-04-18 10:55 16.37724 -22.53492 6549 ft 291 kts 189°
2026-04-18 10:55 16.35739 -22.53867 6130 ft 289 kts 189°
2026-04-18 10:56 16.33767 -22.54241 5711 ft 288 kts 189°
2026-04-18 10:56 16.31799 -22.54610 5281 ft 285 kts 189°
2026-04-18 10:56 16.29855 -22.54974 4594 ft 283 kts 190°
2026-04-18 10:56 16.27985 -22.55571 3977 ft 279 kts 206°
2026-04-18 10:57 16.26381 -22.56655 3827 ft 277 kts 219°
2026-04-18 10:57 16.24840 -22.57881 3770 ft 279 kts 218°
2026-04-18 10:57 16.23282 -22.59103 3683 ft 281 kts 218°
2026-04-18 10:57 16.21721 -22.60325 3557 ft 281 kts 218°
2026-04-18 10:58 16.20169 -22.61545 3431 ft 279 kts 218°
2026-04-18 10:58 16.18620 -22.62761 3307 ft 279 kts 218°
2026-04-18 10:58 16.17071 -22.63977 3184 ft 278 kts 218°
2026-04-18 10:58 16.15530 -22.65190 3055 ft 278 kts 218°
2026-04-18 10:59 16.13990 -22.66405 2925 ft 278 kts 219°
2026-04-18 10:59 16.12452 -22.67620 2804 ft 278 kts 219°
2026-04-18 10:59 16.10928 -22.68823 2677 ft 279 kts 217°
2026-04-18 10:59 16.09383 -22.70042 2554 ft 279 kts 216°
2026-04-18 11:00 16.07850 -22.71252 2502 ft 276 kts 215°
2026-04-18 11:00 16.06354 -22.72485 2497 ft 269 kts 223°
2026-04-18 11:00 16.05322 -22.74023 2496 ft 252 kts 249°
2026-04-18 11:00 16.04849 -22.75696 2509 ft 235 kts 259°
2026-04-18 11:01 16.04466 -22.77304 2494 ft 222 kts 259°
2026-04-18 11:01 16.04104 -22.78809 2516 ft 206 kts 259°
2026-04-18 11:01 16.03772 -22.80186 2504 ft 188 kts 260°
2026-04-18 11:02 16.03196 -22.82609 2519 ft 172 kts 261°
2026-04-18 11:02 16.02913 -22.83826 2510 ft 174 kts 261°
2026-04-18 11:02 16.02626 -22.85048 2505 ft 175 kts 261°
2026-04-18 11:02 16.02337 -22.86274 2506 ft 175 kts 261°
2026-04-18 11:03 16.02048 -22.87493 2501 ft 168 kts 261°
2026-04-18 11:03 16.01777 -22.88623 2494 ft 157 kts 261°
2026-04-18 11:03 16.01544 -22.89712 2494 ft 152 kts 271°
2026-04-18 11:03 16.01725 -22.90741 2501 ft 143 kts 301°
2026-04-18 11:04 16.02334 -22.91517 2505 ft 137 kts 328°
2026-04-18 11:04 16.03190 -22.91901 2504 ft 134 kts 352°
2026-04-18 11:04 16.04115 -22.91841 2491 ft 136 kts 15°
2026-04-18 11:04 16.05022 -22.91557 2239 ft 135 kts 16°
2026-04-18 11:05 16.05919 -22.91278 1992 ft 134 kts 16°
2026-04-18 11:05 16.06814 -22.91002 1743 ft 133 kts 17°
2026-04-18 11:05 16.07699 -22.90727 1507 ft 132 kts 17°
2026-04-18 11:05 16.08579 -22.90454 1266 ft 132 kts 17°
2026-04-18 11:06 16.09460 -22.90194 1018 ft 131 kts 17°
2026-04-18 11:06 16.10342 -22.89941 774 ft 132 kts 17°
2026-04-18 11:06 16.11215 -22.89649 504 ft 132 kts 17°
2026-04-18 11:06 16.12093 -22.89371 247 ft 132 kts 17°
2026-04-18 11:07 16.12972 -22.89098 85 ft 131 kts 17°
2026-04-18 11:07 16.13757 -22.88854 57 ft 87 kts 17°
2026-04-18 11:07 16.13977 -22.88770 60 ft 12 kts
2026-04-18 11:07 16.13988 -22.88786 56 ft 1 kts 224°
2026-04-18 11:08 16.13898 -22.88810 64 ft 19 kts 195°
2026-04-18 11:08 16.13777 -22.88846 57 ft 20 kts 196°
2026-04-18 11:08 16.13621 -22.88899 57 ft 23 kts 217°
2026-04-18 11:08 16.13606 -22.88980 57 ft 10 kts 248°
2026-04-18 11:09 16.13544 -22.89047 53 ft 13 kts 258°
2026-04-18 11:09 16.13551 -22.89088 55 ft 1 kts 286°
2026-04-18 11:09 16.13555 -22.89104 58 ft 3 kts 285°
2026-04-18 11:09 16.13558 -22.89117 58 ft 1 kts 285°
2026-04-18 11:10 16.13559 -22.89117 50 ft 0 kts 285°